Terminal Aerodrome Forecast
Issued by NWS Upton, NY

Home | Current Version | Previous Version | Text Only | Print | Product List | Glossary On
Versions: 1 2 3 4 5 6 7 8 9 10 11 12 13 14 15 16 17 18 19 20 21 22 23 24 25 26 27 28 29 30 31 32 33 34 35 36 37 38 39 40
748
FTUS41 KOKX 202341
TAFEWR
TAF
KEWR 202341Z 2100/2206 35010KT P6SM FEW040 SCT080 BKN250
     FM210200 34008KT P6SM SCT150 BKN250
     FM211400 36011G18KT P6SM FEW040 BKN250
     FM212300 36010KT P6SM SCT050 BKN250=

USA.gov is the U.S. government's official web portal to all federal, state and local government web resources and services.